GW2464 Weather Reports


time (UTC)temp
F
wind
direction
speed
knots
gust
knots
rain 1hr
in
rain 24hr
in
rain mn
in
humidity
%
barometer
mb
20260504150802 58 258 4.3 5.2 0.00 0.00 0.00 49 1011.0
20260504150259 59 254 3.5 5.2 0.00 0.00 0.00 48 1011.0
20260504141229 56 195 4.3 5.2 0.00 0.00 0.00 50 1011.3
20260504140725 56 282 7.0 8.7 0.00 0.00 0.00 50 1011.2
20260504140220 56 182 3.5 4.3 0.00 0.00 0.00 50 1011.2
20260504130649 52 180 3.5 5.2 0.00 0.00 0.00 54 1011.8
20260504130146 52 171 5.2 6.1 0.00 0.00 0.00 54 1011.8
20260504120110 51 183 4.3 5.2 0.00 0.00 0.00 56 1011.9
20260504110538 39 8 0.9 0.9 0.00 0.00 0.00 83 1011.8
20260504100454 35 2 0.9 1.7 0.00 0.00 0.00 89 1011.9
20260504081847 36 359 0.0 0.0 0.00 0.00 0.00 87 1011.9
20260504081343 37 355 0.0 0.0 0.00 0.00 0.00 87 1012.0
20260504080839 37 352 0.0 0.0 0.00 0.00 0.00 86 1011.8
20260504080337 37 348 0.0 0.9 0.00 0.00 0.00 86 1011.9
20260504070304 42 223 2.6 2.6 0.00 0.00 0.00 70 1011.7
20260504060224 40 187 2.6 2.6 0.00 0.00 0.00 75 1011.5
20260504050652 37 13 0.9 0.9 0.00 0.00 0.00 85 1011.6
20260504050149 36 14 0.9 0.9 0.00 0.00 0.00 88 1011.5
20260504045646 36 10 0.9 0.9 0.00 0.00 0.00 89 1011.3
20260504045146 36 0 0.9 1.7 0.00 0.00 0.00 88 1011.2
20260504044644 36 6 0.9 0.9 0.00 0.00 0.00 89 1011.5
20260504044141 36 25 0.9 0.9 0.00 0.00 0.00 89 1011.6
20260504043638 36 11 0.9 1.7 0.00 0.00 0.00 90 1011.5
20260504043135 36 356 0.9 0.9 0.00 0.00 0.00 89 1011.4
20260504042632 37 13 0.0 0.0 0.00 0.00 0.00 88 1011.5
20260504042129 37 7 0.9 0.9 0.00 0.00 0.00 86 1011.4
20260504041625 37 14 0.0 0.9 0.00 0.00 0.00 86 1011.6
20260504041121 37 9 1.7 1.7 0.00 0.00 0.00 86 1011.5
20260504040618 37 10 0.9 0.9 0.00 0.00 0.00 87 1011.4
20260504040115 37 8 0.0 0.9 0.00 0.00 0.00 88 1011.5
20260504035612 37 3 0.0 0.9 0.00 0.00 0.00 87 1011.5
20260504035108 38 10 0.0 0.9 0.00 0.00 0.00 86 1011.8
20260504034606 38 7 0.0 0.9 0.00 0.00 0.00 85 1011.5
20260504034103 38 13 0.0 0.9 0.00 0.00 0.00 85 1011.6
20260504033601 38 15 0.9 0.9 0.00 0.00 0.00 87 1011.5
20260504033058 38 12 0.9 1.7 0.00 0.00 0.00 85 1011.6
20260504032555 39 2 0.0 0.0 0.00 0.00 0.00 87 1011.5
20260504032052 40 14 0.9 0.9 0.00 0.00 0.00 85 1011.6
20260504031549 40 8 0.9 0.9 0.00 0.00 0.00 81 1011.5
20260504031045 41 22 0.9 0.9 0.00 0.00 0.00 83 1011.5
20260504030542 40 32 0.9 1.7 0.00 0.00 0.00 83 1011.5
20260504030038 40 24 0.9 0.9 0.00 0.00 0.00 85 1011.4
20260504025536 40 10 0.9 1.7 0.00 0.00 0.00 86 1011.3
20260504025032 40 354 0.0 0.0 0.00 0.00 0.00 84 1011.2
20260504024529 40 354 0.0 0.0 0.00 0.00 0.00 83 1011.5
20260504024026 40 354 0.0 0.0 0.00 0.00 0.00 83 1011.5
20260504023523 40 354 0.0 0.0 0.00 0.00 0.00 82 1011.4
20260504023018 40 354 0.0 0.0 0.00 0.00 0.00 82 1011.5
20260504022514 40 354 0.0 0.0 0.00 0.00 0.00 82 1011.4
20260504022011 41 359 0.0 0.0 0.00 0.00 0.00 83 1011.3
20260504021509 41 356 0.0 0.0 0.00 0.00 0.00 84 1011.4
20260504021006 41 356 0.0 0.0 0.00 0.00 0.00 81 1011.3
20260504020502 41 357 0.0 0.0 0.00 0.00 0.00 81 1011.3
20260504015959 41 1 0.0 0.0 0.00 0.00 0.00 81 1011.5
20260504015455 41 1 0.0 0.0 0.00 0.00 0.00 80 1011.4
20260504014951 41 4 0.0 0.0 0.00 0.00 0.00 80 1011.3
20260504014447 40 4 0.0 0.0 0.00 0.00 0.00 80 1011.3
20260504013944 40 4 0.0 0.0 0.00 0.00 0.00 81 1011.2
20260504013443 40 4 0.0 0.0 0.00 0.00 0.00 81 1011.1
20260504012938 41 4 0.0 0.0 0.00 0.00 0.00 79 1011.2
20260504012437 41 4 0.0 0.0 0.00 0.00 0.00 77 1011.1
20260504011934 41 4 0.0 0.0 0.00 0.00 0.00 77 1011.2
20260504011430 41 4 0.0 0.0 0.00 0.00 0.00 78 1011.1
20260504010926 41 3 0.0 0.0 0.00 0.00 0.00 77 1011.0
20260504010422 42 3 0.9 0.9 0.00 0.00 0.00 76 1011.1
20260504005919 42 3 0.9 0.9 0.00 0.00 0.00 76 1011.1
20260504005415 42 1 0.9 0.9 0.00 0.00 0.00 77 1011.0
20260504004913 43 4 0.0 0.0 0.00 0.00 0.00 74 1011.1
20260504004411 43 8 0.9 0.9 0.00 0.00 0.00 73 1011.0
20260504003908 43 12 0.9 0.9 0.00 0.00 0.00 73 1011.1
20260504003404 44 351 0.9 0.9 0.00 0.00 0.00 72 1011.0
20260504002901 45 347 0.0 0.9 0.00 0.00 0.00 72 1011.0
20260504002358 45 6 0.0 0.0 0.00 0.00 0.00 68 1010.8
20260504001855 46 359 0.0 0.9 0.00 0.00 0.00 66 1010.7
20260504001352 46 356 0.0 0.0 0.00 0.00 0.00 65 1010.8
20260504000849 47 0 0.0 0.0 0.00 0.00 0.00 64 1010.6
20260504000346 48 2 0.0 0.0 0.00 0.00 0.00 60 1010.8
20260503235844 49 355 0.0 0.0 0.00 0.00 0.00 61 1010.3
20260503235341 49 358 0.0 0.0 0.00 0.00 0.00 58 1010.6
20260503234838 50 350 0.0 0.0 0.00 0.00 0.00 60 1010.1
20260503234336 50 322 0.9 1.7 0.00 0.00 0.00 52 1010.8
20260503233834 51 289 0.9 0.9 0.00 0.00 0.00 52 1010.6
20260503233329 51 253 0.9 1.7 0.00 0.00 0.00 52 1010.3
20260503232826 51 337 0.9 0.9 0.00 0.00 0.00 52 1010.3
20260503232323 51 284 1.7 2.6 0.00 0.00 0.00 51 1010.3
20260503231821 51 230 2.6 2.6 0.00 0.00 0.00 50 1010.3
20260503231318 52 280 2.6 2.6 0.00 0.00 0.00 50 1010.4
20260503230814 52 303 0.9 0.9 0.00 0.00 0.00 51 1010.2
20260503230311 52 300 2.6 2.6 0.00 0.00 0.00 52 1010.3
20260503225809 51 220 2.6 2.6 0.00 0.00 0.00 51 1010.6
20260503225305 52 226 2.6 2.6 0.00 0.00 0.00 51 1010.2
20260503224801 51 244 1.7 1.7 0.00 0.00 0.00 52 1010.2
20260503224259 52 249 2.6 2.6 0.00 0.00 0.00 51 1010.4
20260503223756 52 340 0.9 0.9 0.00 0.00 0.00 52 1010.6
20260503223253 52 275 2.6 2.6 0.00 0.00 0.00 49 1010.4
20260503222749 52 279 2.6 2.6 0.00 0.00 0.00 50 1010.4
20260503222247 52 266 2.6 2.6 0.00 0.00 0.00 50 1010.2
20260503221746 51 278 4.3 5.2 0.00 0.00 0.00 51 1010.4
20260503221243 53 256 2.6 4.3 0.00 0.00 0.00 49 1010.4
20260503220740 53 293 4.3 5.2 0.00 0.00 0.00 50 1010.4
20260503220237 52 3 1.7 2.6 0.00 0.00 0.00 49 1010.4
20260503215733 52 208 3.5 4.3 0.00 0.00 0.00 49 1010.3
20260503215230 53 242 3.5 5.2 0.00 0.00 0.00 47 1010.6
20260503214728 52 264 5.2 6.1 0.00 0.00 0.00 48 1010.3
20260503214225 52 262 5.2 6.1 0.00 0.00 0.00 47 1010.3
20260503213723 52 299 3.5 4.3 0.00 0.00 0.00 47 1010.4
20260503213220 52 269 3.5 4.3 0.00 0.00 0.00 45 1010.3
20260503212717 52 257 3.5 4.3 0.00 0.00 0.00 45 1010.3
20260503212214 52 265 3.5 4.3 0.00 0.00 0.00 47 1010.1
20260503211712 52 260 1.7 2.6 0.00 0.00 0.00 45 1010.1
20260503211208 52 288 1.7 1.7 0.00 0.00 0.00 45 1010.0
20260503210704 53 321 5.2 7.0 0.00 0.00 0.00 44 1010.2
20260503210201 52 199 7.0 8.7 0.00 0.00 0.00 43 1009.9
20260503205656 52 276 5.2 7.0 0.00 0.00 0.00 43 1010.0
20260503205152 52 223 7.0 8.7 0.00 0.00 0.00 43 1010.0
20260503204649 52 232 3.5 4.3 0.00 0.00 0.00 43 1010.0
20260503204147 52 261 5.2 7.0 0.00 0.00 0.00 43 1010.1
20260503203644 53 270 5.2 7.8 0.00 0.00 0.00 43 1009.8
20260503203142 52 306 1.7 1.7 0.00 0.00 0.00 45 1009.8
20260503202638 53 313 5.2 6.1 0.00 0.00 0.00 42 1009.9
20260503202137 52 252 3.5 4.3 0.00 0.00 0.00 43 1010.0
20260503201634 52 247 6.1 8.7 0.00 0.00 0.00 42 1010.0
20260503201131 54 342 2.6 2.6 0.00 0.00 0.00 43 1009.9
20260503200627 53 346 2.6 4.3 0.00 0.00 0.00 41 1009.7
20260503200124 54 252 5.2 7.0 0.00 0.00 0.00 43 1010.0
20260503195621 53 79 0.9 1.7 0.00 0.00 0.00 42 1010.0
20260503195118 51 317 3.5 4.3 0.00 0.00 0.00 44 1010.0
20260503194615 52 281 4.3 6.1 0.00 0.00 0.00 42 1010.2
20260503194110 53 236 9.6 11.3 0.00 0.00 0.00 39 1009.9
20260503193607 53 272 3.5 4.3 0.00 0.00 0.00 40 1010.0
20260503193102 52 254 7.0 7.8 0.00 0.00 0.00 40 1010.6
20260503192558 53 276 2.6 4.3 0.00 0.00 0.00 40 1010.3
20260503192054 52 220 3.5 4.3 0.00 0.00 0.00 41 1010.6
20260503191551 51 227 7.8 7.8 0.00 0.00 0.00 41 1010.4
20260503191048 51 296 3.5 4.3 0.00 0.00 0.00 41 1010.8
20260503190545 52 248 4.3 5.2 0.00 0.00 0.00 41 1011.0
20260503190042 51 10 4.3 6.1 0.00 0.00 0.00 43 1010.7
20260503185539 51 291 2.6 4.3 0.00 0.00 0.00 43 1011.0
20260503185038 51 234 5.2 7.0 0.00 0.00 0.00 45 1010.9
20260503184535 52 337 4.3 5.2 0.00 0.00 0.00 42 1010.8
20260503184032 51 178 2.6 2.6 0.00 0.00 0.00 41 1010.9
20260503183528 50 311 1.7 2.6 0.00 0.00 0.00 43 1011.3
20260503183025 50 193 7.0 11.3 0.00 0.00 0.00 41 1011.4
20260503182524 52 292 2.6 2.6 0.00 0.00 0.00 43 1011.3
20260503182021 51 247 3.5 5.2 0.00 0.00 0.00 44 1011.4
20260503181518 50 303 5.2 7.0 0.00 0.00 0.00 46 1011.2
20260503181014 49 249 4.3 5.2 0.00 0.00 0.00 46 1011.3
20260503180512 49 237 6.1 7.0 0.00 0.00 0.00 43 1011.3
20260503180009 50 260 6.1 8.7 0.00 0.00 0.00 47 1011.2
20260503175506 49 290 3.5 4.3 0.00 0.00 0.00 45 1011.3
20260503175003 48 225 2.6 4.3 0.00 0.00 0.00 45 1011.4
20260503174501 47 315 4.3 5.2 0.00 0.00 0.00 45 1011.5
20260503173956 48 270 6.1 7.0 0.00 0.00 0.00 44 1011.6
20260503173452 47 253 2.6 2.6 0.00 0.00 0.00 46 1011.6
20260503172948 47 269 3.5 5.2 0.00 0.00 0.00 45 1011.6
20260503172446 48 304 7.8 9.6 0.00 0.00 0.00 43 1011.9
20260503171942 48 306 2.6 2.6 0.00 0.00 0.00 44 1011.6
20260503171439 49 171 1.7 2.6 0.00 0.00 0.00 46 1011.7
20260503170937 49 268 4.3 5.2 0.00 0.00 0.00 43 1011.3
20260503170432 47 345 2.6 2.6 0.00 0.00 0.00 45 1011.4